SB KEPS @ AMSAT $ORB09197.O Orbital Elements 09197.OSCAR
HR AMSAT ORBITAL ELEMENTS FOR OSCAR SATELLITES FROM WA5QGD FORT WORTH,TX July 16, 2009 Send Subscribe/unsubscribe to KEPS at http://www.amsat.org/mailman/listinfo/keps BID: ORB09197.O TO ALL RADIO AMATEURS BT
Satellite: AO-07 Catalog number: 07530 Epoch time: 09196.65943590 Element set: 0531 Inclination: 101.4244 deg RA of node: 220.2889 deg Eccentricity: 0.0011814 Arg of perigee: 211.3598 deg Mean anomaly: 148.6768 deg Mean motion: 12.53576033 rev/day Decay rate: -2.7e-07 rev/day^2 Epoch rev: 58628 Checksum: 313
Satellite: FO-29 Catalog number: 24278 Epoch time: 09197.65690272 Element set: 86 Inclination: 098.5498 deg RA of node: 067.7272 deg Eccentricity: 0.0349669 Arg of perigee: 274.0697 deg Mean anomaly: 082.0553 deg Mean motion: 13.52944671 rev/day Decay rate: 6.1e-07 rev/day^2 Epoch rev: 63773 Checksum: 366
Satellite: SO-33 Catalog number: 25509 Epoch time: 09196.50301339 Element set: 0498 Inclination: 031.4344 deg RA of node: 252.3825 deg Eccentricity: 0.0354757 Arg of perigee: 226.0847 deg Mean anomaly: 130.9947 deg Mean motion: 14.28259174 rev/day Decay rate: 6.4e-07 rev/day^2 Epoch rev: 55988 Checksum: 335
Satellite: RS-22 Catalog number: 27939 Epoch time: 09197.53291532 Element set: 841 Inclination: 097.9403 deg RA of node: 071.3284 deg Eccentricity: 0.0014526 Arg of perigee: 043.2667 deg Mean anomaly: 316.9662 deg Mean motion: 14.63328792 rev/day Decay rate: 4.6e-07 rev/day^2 Epoch rev: 30986 Checksum: 331
Satellite: VO-52 Catalog number: 28650 Epoch time: 09197.36001720 Element set: 272 Inclination: 097.7397 deg RA of node: 257.9759 deg Eccentricity: 0.0025869 Arg of perigee: 295.4643 deg Mean anomaly: 064.3883 deg Mean motion: 14.81603180 rev/day Decay rate: 2.40e-06 rev/day^2 Epoch rev: 22696 Checksum: 338
/EX SB KEPS @ AMSAT $ORB09197.D Orbital Elements 09197.MICROS
HR AMSAT ORBITAL ELEMENTS FOR THE MICROSATS FROM WA5QGD FORT WORTH,TX July 16, 2009 Send Subscribe/unsubscribe to KEPS at http://www.amsat.org/mailman/listinfo/keps BID: ORB09197.D TO ALL RADIO AMATEURS BT
Satellite: AO-16 Catalog number: 20439 Epoch time: 09196.57579306 Element set: 0653 Inclination: 098.2805 deg RA of node: 163.6889 deg Eccentricity: 0.0011954 Arg of perigee: 085.7781 deg Mean anomaly: 274.4767 deg Mean motion: 14.31828430 rev/day Decay rate: 7.0e-08 rev/day^2 Epoch rev: 01721 Checksum: 336
Satellite: LO-19 Catalog number: 20442 Epoch time: 09197.60629816 Element set: 568 Inclination: 098.2435 deg RA of node: 171.8210 deg Eccentricity: 0.0012893 Arg of perigee: 081.4140 deg Mean anomaly: 278.8516 deg Mean motion: 14.32063720 rev/day Decay rate: 6.0e-08 rev/day^2 Epoch rev: 1752 Checksum: 295
Satellite: AO-27 Catalog number: 22825 Epoch time: 09197.47813321 Element set: 291 Inclination: 098.4374 deg RA of node: 149.9809 deg Eccentricity: 0.0008671 Arg of perigee: 171.7942 deg Mean anomaly: 188.3405 deg Mean motion: 14.29269119 rev/day Decay rate: -7.0e-08 rev/day^2 Epoch rev: 82409 Checksum: 339
Satellite: IO-26 Catalog number: 22826 Epoch time: 09196.62325548 Element set: 0020 Inclination: 098.4314 deg RA of node: 149.8898 deg Eccentricity: 0.0008999 Arg of perigee: 170.1770 deg Mean anomaly: 189.9589 deg Mean motion: 14.29521242 rev/day Decay rate: -6.0e-08 rev/day^2 Epoch rev: 82407 Checksum: 345
Satellite: GO-32 Catalog number: 25397 Epoch time: 09196.54666860 Element set: 0943 Inclination: 098.3247 deg RA of node: 217.3676 deg Eccentricity: 0.0001832 Arg of perigee: 136.3774 deg Mean anomaly: 223.7571 deg Mean motion: 14.23160405 rev/day Decay rate: -1.42e-06 rev/day^2 Epoch rev: 57216 Checksum: 315
Satellite: NO-44 Catalog number: 26931 Epoch time: 09197.73858712 Element set: 217 Inclination: 067.0535 deg RA of node: 348.2105 deg Eccentricity: 0.0006013 Arg of perigee: 277.9024 deg Mean anomaly: 082.1401 deg Mean motion: 14.29560233 rev/day Decay rate: -2.46e-06 rev/day^2 Epoch rev: 40680 Checksum: 288
Satellite: SO-50 Catalog number: 27607 Epoch time: 09196.73287653 Element set: 0936 Inclination: 064.5605 deg RA of node: 298.3927 deg Eccentricity: 0.0064277 Arg of perigee: 198.8453 deg Mean anomaly: 161.0290 deg Mean motion: 14.71447623 rev/day Decay rate: 5.4e-07 rev/day^2 Epoch rev: 35287 Checksum: 344
Satellite: CO-55 Catalog number: 27844 Epoch time: 09197.00946348 Element set: 622 Inclination: 098.7100 deg RA of node: 205.7647 deg Eccentricity: 0.0010945 Arg of perigee: 063.3732 deg Mean anomaly: 296.8567 deg Mean motion: 14.20646846 rev/day Decay rate: 4.3e-07 rev/day^2 Epoch rev: 31335 Checksum: 321
Satellite: CO-57 Catalog number: 27848 Epoch time: 09196.56838422 Element set: 570 Inclination: 098.7142 deg RA of node: 204.3921 deg Eccentricity: 0.0010765 Arg of perigee: 066.9535 deg Mean anomaly: 293.2786 deg Mean motion: 14.20447519 rev/day Decay rate: 4.0e-08 rev/day^2 Epoch rev: 31325 Checksum: 325
Satellite: AO-51 Catalog number: 28375 Epoch time: 09196.57956979 Element set: 0438 Inclination: 098.0514 deg RA of node: 204.5261 deg Eccentricity: 0.0085250 Arg of perigee: 039.1664 deg Mean anomaly: 321.5655 deg Mean motion: 14.40646911 rev/day Decay rate: -4.0e-08 rev/day^2 Epoch rev: 26504 Checksum: 321
Satellite: CO-56 Catalog number: 28941 Epoch time: 09197.61192874 Element set: 260 Inclination: 098.1367 deg RA of node: 017.6655 deg Eccentricity: 0.0074803 Arg of perigee: 021.2197 deg Mean anomaly: 339.2012 deg Mean motion: 15.88489636 rev/day Decay rate: 6.5982e-04 rev/day^2 Epoch rev: 19191 Checksum: 352
Satellite: GENESAT1 Catalog number: 29655 Epoch time: 09197.77349796 Element set: 758 Inclination: 040.0248 deg RA of node: 357.8560 deg Eccentricity: 0.0003440 Arg of perigee: 331.5629 deg Mean anomaly: 028.4997 deg Mean motion: 15.66172288 rev/day Decay rate: 1.0275e-04 rev/day^2 Epoch rev: 14711 Checksum: 339
Satellite: CP3 Catalog number: 31129 Epoch time: 09197.66336730 Element set: 68 Inclination: 097.9890 deg RA of node: 249.3305 deg Eccentricity: 0.0101919 Arg of perigee: 193.2345 deg Mean anomaly: 166.6172 deg Mean motion: 14.52148527 rev/day Decay rate: 9.3e-07 rev/day^2 Epoch rev: 11916 Checksum: 317
Satellite: CO-65 Catalog number: 32785 Epoch time: 09196.55955078 Element set: 0420 Inclination: 097.9440 deg RA of node: 260.2912 deg Eccentricity: 0.0014173 Arg of perigee: 302.8595 deg Mean anomaly: 057.1266 deg Mean motion: 14.81500483 rev/day Decay rate: 3.31e-06 rev/day^2 Epoch rev: 06564 Checksum: 313
Satellite: KKS-1 Catalog number: 33493 Epoch time: 09197.69792341 Element set: 572 Inclination: 098.0591 deg RA of node: 310.0398 deg Eccentricity: 0.0020933 Arg of perigee: 143.2337 deg Mean anomaly: 217.0324 deg Mean motion: 14.80699615 rev/day Decay rate: 2.34e-06 rev/day^2 Epoch rev: 2583 Checksum: 305
Satellite: SOHLA-1 Catalog number: 33496 Epoch time: 09197.87143369 Element set: 536 Inclination: 098.0399 deg RA of node: 306.7198 deg Eccentricity: 0.0006283 Arg of perigee: 177.8401 deg Mean anomaly: 182.2823 deg Mean motion: 14.69439792 rev/day Decay rate: -4.0e-08 rev/day^2 Epoch rev: 2563 Checksum: 339
/EX SB KEPS @ AMSAT $ORB09197.W Orbital Elements 09197.WEATHER
HR AMSAT ORBITAL ELEMENTS FOR WEATHER SATELLITES FROM WA5QGD FORT WORTH,TX July 16, 2009 Send Subscribe/unsubscribe to KEPS at http://www.amsat.org/mailman/listinfo/keps BID: ORB09197.W TO ALL RADIO AMATEURS BT
Satellite: NOAA-10 Catalog number: 16969 Epoch time: 09197.10755942 Element set: 686 Inclination: 098.6895 deg RA of node: 223.5960 deg Eccentricity: 0.0013050 Arg of perigee: 110.6417 deg Mean anomaly: 249.6189 deg Mean motion: 14.27390392 rev/day Decay rate: -2.0e-08 rev/day^2 Epoch rev: 18763 Checksum: 331
Satellite: NOAA-11 Catalog number: 19531 Epoch time: 09197.27166061 Element set: 706 Inclination: 098.7834 deg RA of node: 286.7767 deg Eccentricity: 0.0012093 Arg of perigee: 029.1127 deg Mean anomaly: 331.0693 deg Mean motion: 14.14898348 rev/day Decay rate: -1.91e-06 rev/day^2 Epoch rev: 7363 Checksum: 324
Satellite: NOAA-12 Catalog number: 21263 Epoch time: 09197.58564359 Element set: 191 Inclination: 098.7709 deg RA of node: 205.6581 deg Eccentricity: 0.0013564 Arg of perigee: 062.4110 deg Mean anomaly: 297.8444 deg Mean motion: 14.25585215 rev/day Decay rate: 1.0e-08 rev/day^2 Epoch rev: 94458 Checksum: 318
Satellite: MET-3/5 Catalog number: 21655 Epoch time: 09196.94157113 Element set: 0641 Inclination: 082.5518 deg RA of node: 186.1810 deg Eccentricity: 0.0014645 Arg of perigee: 105.0684 deg Mean anomaly: 255.2061 deg Mean motion: 13.17019590 rev/day Decay rate: 5.1e-07 rev/day^2 Epoch rev: 86141 Checksum: 286
Satellite: MET-2/21 Catalog number: 22782 Epoch time: 09196.81550733 Element set: 0512 Inclination: 082.5489 deg RA of node: 159.3006 deg Eccentricity: 0.0020684 Arg of perigee: 266.8064 deg Mean anomaly: 093.0727 deg Mean motion: 13.83636369 rev/day Decay rate: 3.8e-07 rev/day^2 Epoch rev: 80156 Checksum: 321
Satellite: OKEAN-4 Catalog number: 23317 Epoch time: 09197.72593640 Element set: 963 Inclination: 082.5422 deg RA of node: 306.9215 deg Eccentricity: 0.0020349 Arg of perigee: 267.8669 deg Mean anomaly: 092.0235 deg Mean motion: 14.82708006 rev/day Decay rate: 3.0e-07 rev/day^2 Epoch rev: 79674 Checksum: 315
Satellite: NOAA-14 Catalog number: 23455 Epoch time: 09197.39977262 Element set: 690 Inclination: 098.9078 deg RA of node: 274.9770 deg Eccentricity: 0.0010435 Arg of perigee: 107.1838 deg Mean anomaly: 253.0471 deg Mean motion: 14.13767966 rev/day Decay rate: 2.37e-06 rev/day^2 Epoch rev: 75005 Checksum: 339
Satellite: NOAA-15 Catalog number: 25338 Epoch time: 09197.54814028 Element set: 7 Inclination: 098.5851 deg RA of node: 186.1124 deg Eccentricity: 0.0010166 Arg of perigee: 338.6261 deg Mean anomaly: 021.4475 deg Mean motion: 14.24772942 rev/day Decay rate: 2.1e-07 rev/day^2 Epoch rev: 58095 Checksum: 300
